Location: Passau
(48.5830°N, 13.4830°E)
Time: 11:55:37
(UTC+02:00)

N. Korean satellite - Pass Details

Date: 27 September 2021
Orbit: 450 x 495 km, 97.3° (Epoch: 15 October)

Event Time Altitude Azimuth Distance (km) Brightness Sun altitude
Rises 06:07:27 0° 18° (NNE) 2,530 10.6 -9.5°
Reaches altitude 10° 06:09:34 10° 25° (NNE) 1,655 9.7 -9.1°
Maximum altitude 06:13:00 45° 99° (E) 665 7.8 -8.6°
Drops below altitude 10° 06:16:27 10° 173° (S) 1,665 9.3 -8.0°
Sets 06:18:35 0° 180° (S) 2,548 10.2 -7.6°
